Location: ??
(34.7252°N, 135.5457°E)
Time: 17:34:57
(UTC+00:00)

CZ-2C R/B - Pass Details

Date: 24 September 2020
Orbit: 668 x 783 km, 98.2° (Epoch: 27 October)

Event Time Altitude Azimuth Distance (km) Brightness Sun altitude
Rises 20:02:45 0° 354° (N) 3,261 5.8 -10.1°
Reaches altitude 10° 20:05:39 10° 338° (NNW) 2,339 4.8 -9.5°
Maximum altitude 20:09:15 19° 293° (WNW) 1,774 3.9 -8.8°
Drops below altitude 10° 20:12:51 10° 249° (WSW) 2,335 4.4 -8.0°
Enters shadow 20:13:42 - 243° (WSW) 2,584 4.7 -7.9°
